N4NVD-13 Weather Reports


Display with metric or nautical units.
time (UTC)temp
F
wind
direction
speed
MPH
gust
MPH
rain 1hr
in
rain 24hr
in
rain mn
in
humidity
%
barometer
mb
20260508025445 63 19 2.0 2.0 0.00 0.00 0.00 89 1013.4
20260508024943 63 23 1.0 3.0 0.00 0.00 0.00 88 1013.2
20260508024438 63 114 3.0 5.0 0.00 0.00 0.00 88 1013.1
20260508023935 63 65 2.0 6.0 0.00 0.00 0.00 88 1013.1
20260508023432 63 83 1.0 3.0 0.00 0.00 0.00 88 1013.3
20260508022929 63 74 1.0 3.0 0.00 0.00 0.00 88 1013.5
20260508022425 63 84 2.0 3.0 0.00 0.00 0.00 88 1013.5
20260508021922 63 90 1.0 1.0 0.00 0.00 0.00 88 1014.2
20260508021418 63 14 0.0 2.0 0.00 0.00 0.00 88 1014.0
20260508020914 63 81 0.0 3.0 0.00 0.00 0.00 87 1013.6
20260508020412 63 26 0.0 2.0 0.00 0.00 0.00 87 1013.5
20260508015909 63 71 1.0 4.0 0.00 0.00 0.00 87 1013.3
20260508015407 63 90 1.0 5.0 0.00 0.00 0.00 87 1013.3
20260508014903 63 13 3.0 3.0 0.00 0.00 0.00 87 1013.3
20260508014400 63 90 2.0 3.0 0.00 0.00 0.00 86 1013.4
20260508013855 64 40 2.0 2.0 0.00 0.00 0.00 87 1013.7
20260508013352 64 352 0.0 2.0 0.00 0.00 0.00 86 1013.9
20260508012849 64 0 0.0 2.0 0.00 0.00 0.00 85 1014.1
20260508012346 64 77 0.0 3.0 0.00 0.00 0.00 85 1013.8
20260508011844 64 90 2.0 5.0 0.00 0.00 0.00 84 1013.7
20260508011342 64 84 2.0 3.0 0.00 0.00 0.00 84 1014.1
20260508010838 64 85 4.0 4.0 0.00 0.00 0.00 84 1013.9
20260508010336 64 18 3.0 5.0 0.00 0.00 0.00 84 1014.3
20260508005833 64 53 2.0 2.0 0.00 0.00 0.00 84 1014.6
20260508005330 64 38 2.0 3.0 0.00 0.00 0.00 83 1014.3
20260508004826 65 0 1.0 5.0 0.00 0.00 0.00 83 1014.1
20260508004322 65 292 2.0 4.0 0.00 0.00 0.00 83 1014.0
20260508003813 65 8 4.0 4.0 0.00 0.00 0.00 82 1013.9
20260508003311 65 345 2.0 4.0 0.00 0.00 0.00 82 1014.1
20260508002807 66 79 3.0 4.0 0.00 0.00 0.00 81 1014.0
20260508002306 65 64 3.0 9.0 0.00 0.00 0.00 81 1013.8
20260508001800 65 80 5.0 8.0 0.00 0.00 0.00 81 1014.1
20260508001256 66 54 8.0 8.0 0.00 0.00 0.00 80 1014.4
20260508000752 66 47 3.0 6.0 0.00 0.00 0.00 80 1014.3
20260508000250 66 32 4.0 10.0 0.00 0.00 0.00 80 1014.1
20260507235746 66 69 8.0 8.0 0.00 0.00 0.00 80 1014.3
20260507235244 66 353 2.0 7.0 0.00 0.00 0.00 80 1014.5
20260507234740 66 72 4.0 7.0 0.00 0.00 0.00 79 1014.6
20260507234237 66 25 3.0 6.0 0.00 0.00 0.00 80 1014.6
20260507233733 66 26 2.0 5.0 0.00 0.00 0.00 80 1014.5
20260507233231 66 17 2.0 5.0 0.00 0.00 0.00 79 1014.8
20260507232728 67 2 3.0 5.0 0.00 0.00 0.00 78 1014.5
20260507232225 67 14 3.0 4.0 0.00 0.00 0.00 78 1014.4
20260507231722 67 0 2.0 5.0 0.00 0.00 0.00 78 1014.7
20260507231219 67 37 2.0 10.0 0.00 0.00 0.00 78 1014.9
20260507230715 67 43 5.0 11.0 0.00 0.00 0.00 77 1015.2
20260507230214 67 52 2.0 6.0 0.00 0.00 0.00 78 1014.4
20260507225712 67 90 1.0 8.0 0.00 0.00 0.00 79 1014.4
20260507225209 67 34 5.0 9.0 0.00 0.00 0.00 77 1014.6
20260507224705 68 27 4.0 7.0 0.00 0.00 0.00 76 1014.5
20260507224202 68 335 3.0 4.0 0.00 0.00 0.00 79 1014.7
20260507223658 67 349 3.0 9.0 0.00 0.00 0.00 78 1014.6
20260507223155 67 0 2.0 12.0 0.00 0.00 0.00 79 1014.5
20260507222652 67 17 4.0 8.0 0.00 0.00 0.00 78 1014.7
20260507222148 67 350 2.0 9.0 0.00 0.00 0.00 78 1014.8
20260507221644 68 40 5.0 7.0 0.00 0.00 0.00 78 1014.8
20260507221141 67 22 3.0 7.0 0.00 0.00 0.00 77 1014.9
20260507220638 67 11 3.0 5.0 0.00 0.00 0.00 78 1014.7
20260507220136 67 349 3.0 7.0 0.00 0.00 0.00 78 1014.7
20260507215632 68 3 2.0 4.0 0.00 0.00 0.00 77 1015.1
20260507215129 68 50 3.0 7.0 0.00 0.00 0.00 76 1014.9
20260507214626 68 301 0.0 11.0 0.00 0.00 0.00 78 1014.6
20260507214123 69 104 4.0 4.0 0.00 0.00 0.00 77 1014.8
20260507213619 67 0 0.0 15.0 0.00 0.00 0.00 77 1014.8
20260507213116 67 289 3.0 5.0 0.00 0.00 0.00 77 1014.6
20260507212612 66 331 2.0 13.0 0.00 0.00 0.00 79 1014.5
20260507212109 66 17 4.0 10.0 0.00 0.00 0.00 78 1014.7
20260507211606 66 50 7.0 10.0 0.00 0.00 0.00 78 1014.9
20260507211101 66 33 2.0 5.0 0.00 0.00 0.00 78 1015.0
20260507210559 66 12 4.0 7.0 0.00 0.00 0.00 77 1014.7
20260507210056 67 33 2.0 5.0 0.00 0.00 0.00 79 1014.6
20260507205552 66 27 4.0 10.0 0.00 0.00 0.00 78 1014.6
20260507205049 66 26 3.0 6.0 0.00 0.00 0.00 79 1014.8
20260507204545 66 51 3.0 9.0 0.00 0.00 0.00 79 1014.9
20260507204043 66 359 4.0 12.0 0.00 0.00 0.00 79 1014.3
20260507203541 66 45 9.0 14.0 0.00 0.00 0.00 78 1014.1
20260507203038 66 81 9.0 12.0 0.00 0.00 0.00 78 1014.8
20260507202533 66 33 5.0 8.0 0.00 0.00 0.00 79 1014.8
20260507202030 67 17 6.0 13.0 0.00 0.00 0.00 77 1015.2
20260507201525 67 349 4.0 9.0 0.00 0.00 0.00 78 1015.5
20260507201022 66 43 7.0 16.0 0.00 0.00 0.00 77 1015.6
20260507200517 67 19 4.0 10.0 0.00 0.00 0.00 77 1015.7
20260507200014 67 353 5.0 12.0 0.00 0.00 0.00 78 1015.5
20260507195511 67 71 6.0 8.0 0.00 0.00 0.00 78 1015.5
20260507195009 67 25 3.0 7.0 0.00 0.00 0.00 78 1015.8
20260507194505 67 24 2.0 11.0 0.00 0.00 0.00 78 1015.9
20260507194001 68 350 3.0 8.0 0.00 0.00 0.00 77 1015.5
20260507193458 68 351 2.0 6.0 0.00 0.00 0.00 78 1015.8
20260507192955 68 14 4.0 11.0 0.00 0.00 0.00 77 1015.3
20260507192450 68 41 4.0 13.0 0.00 0.00 0.00 76 1015.7
20260507191948 69 44 10.0 15.0 0.00 0.00 0.00 75 1015.5
20260507191443 70 342 5.0 12.0 0.00 0.00 0.00 74 1016.0
20260507190940 70 31 3.0 13.0 0.00 0.00 0.00 76 1016.1
20260507190438 70 42 5.0 11.0 0.00 0.00 0.00 75 1015.9
20260507185937 69 12 6.0 15.0 0.00 0.00 0.00 75 1015.2
20260507185434 69 51 6.0 13.0 0.00 0.00 0.00 76 1015.3
20260507184930 68 82 1.0 14.0 0.00 0.00 0.00 76 1015.3
20260507184429 68 46 4.0 14.0 0.00 0.00 0.00 76 1015.6
20260507183926 69 29 6.0 12.0 0.00 0.00 0.00 75 1015.8
20260507183422 69 75 6.0 12.0 0.00 0.00 0.00 77 1016.0
20260507182920 68 90 7.0 11.0 0.00 0.00 0.00 74 1016.3
20260507182415 69 344 7.0 12.0 0.00 0.00 0.00 75 1016.1
20260507181912 68 29 5.0 14.0 0.00 0.00 0.00 76 1016.1
20260507181408 68 359 5.0 14.0 0.00 0.00 0.00 76 1016.0
20260507180905 68 26 6.0 13.0 0.00 0.00 0.00 74 1016.3
20260507180402 68 21 5.0 15.0 0.00 0.00 0.00 75 1016.5
20260507175858 68 57 10.0 14.0 0.00 0.00 0.00 75 1016.6
20260507175354 68 60 4.0 7.0 0.00 0.00 0.00 77 1016.9
20260507174852 69 349 2.0 7.0 0.00 0.00 0.00 76 1017.2
20260507174349 69 8 5.0 15.0 0.00 0.00 0.00 75 1017.3
20260507173847 69 10 2.0 8.0 0.00 0.00 0.00 76 1017.4
20260507173344 68 90 3.0 8.0 0.00 0.00 0.00 77 1017.5
20260507172840 67 66 0.0 9.0 0.00 0.00 0.00 78 1017.0
20260507172337 67 327 3.0 11.0 0.00 0.00 0.00 78 1016.8
20260507171833 67 39 7.0 9.0 0.00 0.00 0.00 80 1017.2
20260507171330 65 39 3.0 11.0 0.00 0.00 0.00 81 1016.7
20260507170827 65 19 4.0 13.0 0.00 0.00 0.00 80 1016.6
20260507170323 65 82 5.0 13.0 0.00 0.00 0.00 81 1016.8
20260507165819 64 326 3.0 10.0 0.00 0.00 0.00 83 1017.0
20260507165315 64 328 3.0 9.0 0.00 0.00 0.00 82 1017.0
20260507164811 64 32 5.0 7.0 0.00 0.00 0.00 82 1017.2
20260507164309 64 90 5.0 11.0 0.00 0.00 0.00 81 1017.3
20260507163806 65 69 9.0 15.0 0.00 0.00 0.00 80 1017.7
20260507163303 65 13 5.0 7.0 0.00 0.00 0.00 82 1017.1
20260507162759 64 29 3.0 14.0 0.00 0.00 0.00 82 1017.6
20260507162255 64 10 4.0 9.0 0.00 0.00 0.00 83 1017.5
20260507161752 63 30 7.0 11.0 0.00 0.00 0.00 82 1017.5
20260507161249 63 62 5.0 7.0 0.00 0.00 0.00 83 1017.6
20260507160745 62 75 9.0 12.0 0.00 0.00 0.00 83 1017.3
20260507160241 62 34 5.0 11.0 0.00 0.00 0.00 83 1017.3
20260507155737 62 18 6.0 12.0 0.00 0.00 0.00 83 1017.3
20260507155233 62 2 3.0 9.0 0.00 0.00 0.00 85 1017.0
20260507154730 62 340 4.0 7.0 0.00 0.00 0.00 86 1017.3
20260507154228 61 51 4.0 12.0 0.00 0.00 0.00 86 1017.3
20260507153724 61 14 3.0 8.0 0.00 0.00 0.00 86 1017.5
20260507153221 61 21 6.0 8.0 0.00 0.00 0.00 87 1017.3
20260507152717 61 15 2.0 9.0 0.00 0.00 0.00 87 1017.1
20260507152213 61 21 2.0 7.0 0.00 0.00 0.00 86 1017.0
20260507151710 61 0 5.0 9.0 0.00 0.00 0.00 86 1016.9
20260507151206 61 353 8.0 13.0 0.00 0.00 0.00 86 1017.0
20260507150703 60 348 3.0 11.0 0.00 0.00 0.00 88 1016.4
20260507150200 60 8 6.0 14.0 0.00 0.00 0.00 88 1017.1
20260507145656 59 141 4.0 7.0 0.00 0.00 0.00 88 1017.0
20260507145153 59 22 6.0 11.0 0.00 0.00 0.00 89 1016.5
20260507144649 60 22 2.0 6.0 0.00 0.00 0.00 89 1016.6
20260507144148 59 25 6.0 13.0 0.00 0.00 0.00 89 1017.2
20260507143644 60 37 8.0 14.0 0.00 0.00 0.00 89 1017.0
20260507143141 59 66 7.0 15.0 0.00 0.00 0.00 90 1017.0
20260507142636 59 354 3.0 6.0 0.00 0.00 0.00 91 1017.3
20260507142134 59 38 9.0 16.0 0.00 0.00 0.00 91 1016.9
20260507141630 59 32 3.0 11.0 0.00 0.00 0.00 91 1017.0
20260507141127 59 45 5.0 11.0 0.00 0.00 0.00 91 1017.1
20260507140623 58 0 1.0 8.0 0.00 0.00 0.00 92 1017.0
20260507140121 58 357 5.0 13.0 0.00 0.00 0.00 92 1017.5
20260507135618 58 359 6.0 8.0 0.00 0.00 0.00 92 1017.4
20260507135115 58 26 8.0 17.0 0.00 0.00 0.00 92 1017.3
20260507134611 58 82 4.0 10.0 0.00 0.00 0.00 92 1016.9
20260507134107 59 352 4.0 7.0 0.00 0.00 0.00 92 1017.1
20260507133603 59 107 3.0 10.0 0.00 0.00 0.00 92 1017.2
20260507133101 59 333 7.0 14.0 0.00 0.00 0.00 92 1016.9
20260507132558 59 355 3.0 11.0 0.00 0.00 0.00 92 1017.2
20260507132054 58 324 4.0 13.0 0.00 0.00 0.00 92 1017.1
20260507131551 58 356 2.0 9.0 0.00 0.00 0.00 93 1016.9
20260507131049 58 353 2.0 7.0 0.00 0.00 0.00 93 1016.8
20260507130545 58 13 3.0 13.0 0.00 0.00 0.00 93 1017.1
20260507130043 58 37 9.0 11.0 0.00 0.00 0.00 93 1016.9
20260507125542 58 6 3.0 9.0 0.00 0.00 0.00 93 1016.9
20260507125039 58 22 6.0 9.0 0.00 0.00 0.00 93 1016.7
20260507124535 58 25 9.0 16.0 0.00 0.00 0.00 93 1016.8
20260507124033 58 28 2.0 8.0 0.00 0.00 0.00 93 1016.7
20260507123531 58 24 4.0 10.0 0.00 0.00 0.00 93 1016.9
20260507123027 58 56 11.0 12.0 0.00 0.00 0.00 92 1016.7
20260507122522 59 313 3.0 9.0 0.00 0.00 0.00 93 1016.5
20260507122019 59 21 4.0 7.0 0.00 0.00 0.00 93 1016.3
20260507121514 59 17 4.0 8.0 0.00 0.00 0.00 93 1016.0
20260507121010 59 7 5.0 12.0 0.00 0.00 0.00 93 1016.2
20260507120507 59 338 5.0 18.0 0.00 0.00 0.00 93 1016.2
20260507120005 59 339 2.0 8.0 0.00 0.00 0.00 93 1016.1
20260507115500 60 7 3.0 15.0 0.00 0.00 0.00 93 1016.1
20260507114955 60 16 9.0 10.0 0.00 0.00 0.00 93 1016.0
20260507114452 60 348 2.0 13.0 0.00 0.00 0.00 93 1016.0
20260507113949 60 347 5.0 7.0 0.00 0.00 0.00 93 1015.8
20260507113446 60 30 2.0 15.0 0.00 0.00 0.00 93 1016.1
20260507112944 60 10 3.0 5.0 0.00 0.00 0.00 94 1016.0
20260507112441 60 0 2.0 6.0 0.00 0.00 0.00 94 1015.8
20260507111938 60 48 9.0 9.0 0.00 0.00 0.00 94 1015.3
20260507111435 60 35 1.0 10.0 0.00 0.00 0.00 94 1014.9
20260507110931 60 48 5.0 8.0 0.00 0.00 0.00 95 1014.8
20260507110428 60 4 2.0 9.0 0.00 0.00 0.00 95 1015.1
20260507105924 60 16 5.0 11.0 0.00 0.00 0.00 95 1015.0
20260507105421 60 16 7.0 17.0 0.00 0.00 0.00 95 1015.0
20260507104918 60 9 3.0 17.0 0.00 0.00 0.00 95 1015.5
20260507104415 60 311 3.0 6.0 0.00 0.00 0.00 96 1015.2
20260507103910 60 48 4.0 9.0 0.00 0.00 0.00 96 1015.3
20260507103408 60 283 4.0 13.0 0.00 0.00 0.00 96 1015.1
20260507102903 60 12 1.0 6.0 0.00 0.00 0.00 96 1015.3
20260507102400 60 65 5.0 9.0 0.00 0.00 0.00 96 1014.9
20260507101857 61 353 3.0 8.0 0.00 0.00 0.00 96 1015.1
20260507101357 61 15 2.0 4.0 0.00 0.00 0.00 96 1015.1
20260507100854 61 36 2.0 7.0 0.00 0.00 0.00 96 1014.7
20260507100352 61 8 3.0 6.0 0.00 0.00 0.00 96 1014.7
20260507095850 61 0 0.0 3.0 0.00 0.00 0.00 96 1015.0
20260507095346 61 325 1.0 4.0 0.00 0.00 0.00 96 1014.9
20260507094843 61 7 1.0 10.0 0.00 0.00 0.00 96 1014.6
20260507094340 61 41 2.0 7.0 0.00 0.00 0.00 96 1014.4
20260507093837 61 32 3.0 4.0 0.00 0.00 0.00 95 1014.3
20260507093335 61 29 0.0 8.0 0.00 0.00 0.00 95 1014.0
20260507092833 61 292 5.0 9.0 0.00 0.00 0.00 95 1014.2
20260507092329 61 45 3.0 7.0 0.00 0.00 0.00 95 1014.3
20260507091825 61 229 2.0 6.0 0.00 0.00 0.00 95 1014.7
20260507091322 61 352 2.0 4.0 0.00 0.00 0.00 95 1014.6
20260507090818 61 352 0.0 7.0 0.00 0.00 0.00 95 1014.2
20260507090314 61 15 5.0 7.0 0.00 0.00 0.00 95 1014.0
20260507085811 61 12 2.0 3.0 0.00 0.00 0.00 95 1013.9
20260507085308 61 342 1.0 5.0 0.00 0.00 0.00 94 1013.5
20260507084806 61 15 5.0 7.0 0.00 0.00 0.00 94 1013.4
20260507084301 61 11 2.0 5.0 0.00 0.00 0.00 94 1013.5
20260507083759 61 48 2.0 6.0 0.00 0.00 0.00 94 1013.7
20260507083255 61 41 2.0 8.0 0.00 0.00 0.00 94 1013.5
20260507082752 62 0 2.0 4.0 0.00 0.00 0.00 94 1013.5
20260507082247 62 43 5.0 6.0 0.00 0.00 0.00 94 1013.3
20260507081744 62 28 2.0 7.0 0.00 0.00 0.00 94 1013.6
20260507081240 62 39 5.0 8.0 0.00 0.00 0.00 93 1013.5
20260507080737 62 50 3.0 4.0 0.00 0.00 0.00 93 1014.1
20260507080233 62 50 3.0 6.0 0.00 0.00 0.00 93 1014.3
20260507075729 62 33 4.0 9.0 0.00 0.00 0.00 93 1014.2
20260507075225 62 69 1.0 2.0 0.00 0.00 0.00 93 1014.5
20260507074722 62 11 4.0 5.0 0.00 0.00 0.00 93 1014.5
20260507074220 62 285 0.0 3.0 0.00 0.00 0.00 93 1014.9
20260507073716 62 22 8.0 9.0 0.00 0.00 0.00 93 1013.6
20260507073213 62 38 2.0 4.0 0.00 0.00 0.00 93 1014.1
20260507072711 62 10 2.0 12.0 0.00 0.00 0.00 93 1013.9
20260507072208 62 70 3.0 11.0 0.00 0.00 0.00 93 1013.4
20260507071705 62 348 7.0 7.0 0.00 0.00 0.00 93 1013.2
20260507071201 62 24 5.0 7.0 0.00 0.00 0.00 92 1013.9
20260507070659 62 11 7.0 9.0 0.00 0.00 0.00 92 1014.0
20260507070155 62 32 2.0 8.0 0.00 0.00 0.00 92 1014.0
20260507065652 62 307 3.0 12.0 0.00 0.00 0.00 92 1013.8
20260507065149 62 38 4.0 9.0 0.00 0.00 0.00 92 1014.0
20260507064646 62 6 5.0 5.0 0.00 0.00 0.00 92 1014.5
20260507064145 62 21 5.0 6.0 0.00 0.00 0.00 92 1014.5
20260507063642 62 77 4.0 13.0 0.00 0.00 0.00 92 1013.6
20260507063139 62 65 7.0 10.0 0.00 0.00 0.00 92 1013.8
20260507062636 62 357 5.0 9.0 0.00 0.00 0.00 92 1014.5
20260507062133 62 15 3.0 8.0 0.00 0.00 0.00 92 1014.5
20260507061631 62 117 5.0 10.0 0.00 0.00 0.00 92 1014.0
20260507061129 62 353 7.0 14.0 0.00 0.00 0.00 91 1014.4
20260507060627 62 43 4.0 9.0 0.00 0.00 0.00 91 1014.2
20260507060123 62 0 2.0 7.0 0.00 0.00 0.00 91 1014.7
20260507055618 62 40 8.0 10.0 0.00 0.00 0.00 91 1014.3
20260507055114 62 26 5.0 15.0 0.00 0.00 0.00 91 1014.6
20260507054610 62 270 0.0 10.0 0.00 0.00 0.00 91 1014.4
20260507054108 62 25 7.0 17.0 0.00 0.00 0.00 91 1014.1
20260507053606 62 36 5.0 15.0 0.00 0.00 0.00 91 1013.7
20260507053104 62 26 4.0 11.0 0.00 0.00 0.00 91 1014.0
20260507052602 62 15 7.0 11.0 0.00 0.00 0.00 91 1013.9
20260507052058 62 359 11.0 13.0 0.00 0.00 0.00 91 1014.1
20260507051555 62 23 6.0 11.0 0.00 0.00 0.00 91 1014.3
20260507051052 62 19 4.0 10.0 0.00 0.00 0.00 91 1014.2
20260507050549 62 18 1.0 11.0 0.00 0.00 0.00 91 1014.5
20260507050045 62 55 5.0 7.0 0.00 0.00 0.00 91 1014.4
20260507045542 62 341 3.0 16.0 0.00 0.00 0.00 91 1014.3
20260507045039 62 24 5.0 11.0 0.00 0.00 0.00 90 1014.4
20260507044536 62 3 3.0 5.0 0.00 0.00 0.00 90 1014.3
20260507044033 62 20 5.0 16.0 0.00 0.00 0.00 90 1014.1
20260507043528 62 30 6.0 12.0 0.00 0.00 0.00 90 1014.1
20260507043026 62 6 1.0 14.0 0.00 0.00 0.00 90 1014.0
20260507042522 62 21 2.0 6.0 0.00 0.00 0.00 90 1014.2
20260507042017 62 345 6.0 10.0 0.00 0.00 0.00 90 1014.2
20260507041515 62 37 7.0 13.0 0.00 0.00 0.00 90 1014.0
20260507041012 62 24 10.0 10.0 0.00 0.00 0.00 90 1014.0
20260507040508 62 24 5.0 8.0 0.00 0.00 0.00 90 1014.5
20260507040004 62 63 3.0 6.0 0.00 0.00 0.00 90 1014.3
20260507035500 62 351 4.0 12.0 0.00 0.00 0.00 90 1013.5
20260507034957 63 12 5.0 9.0 0.00 0.00 0.00 90 1013.7
20260507034454 63 56 2.0 7.0 0.00 0.00 0.00 90 1014.6
20260507033952 63 27 4.0 14.0 0.00 0.00 0.00 90 1014.1
20260507033449 63 7 1.0 5.0 0.00 0.00 0.00 90 1013.8
20260507032946 63 18 5.0 9.0 0.00 0.00 0.00 90 1013.4
20260507032443 63 32 4.0 7.0 0.00 0.00 0.00 90 1013.8
20260507031939 63 62 4.0 5.0 0.00 0.00 0.00 90 1013.5
20260507031436 63 31 3.0 7.0 0.00 0.00 0.00 90 1013.9
20260507030933 63 51 4.0 6.0 0.00 0.00 0.00 90 1013.8
20260507030430 63 83 4.0 8.0 0.00 0.00 0.00 90 1013.7
20260507025927 63 41 7.0 11.0 0.00 0.00 0.00 90 1013.3